Regional Weather Roundup
Issued by NWS

Home | Current Version | Previous Version | Graphics & Text | Print | Product List | Glossary On
Versions: 1 2 3 4 5 6 7 8 9 10 11 12 13 14 15 16 17 18 19 20 21 22 23 24 25 26 27 28 29 30 31 32 33 34 35 36 37 38 39 40 41 42 43 44 45 46 47 48 49 50
000
ASUS45 KBOI 311310
RWRID

IDAHO REGIONAL WEATHER ROUNDUP
NATIONAL WEATHER SERVICE BOISE ID
700 AM MDT FRI JUL 31 2015

NOTE: "FAIR" INDICATES FEW OR NO CLOUDS BELOW 12000 FEET
WITH NO SIGNIFICANT WEATHER AND/OR OBSTRUCTIONS TO VISIBILITY

IDZ012-014-311400-
SOUTHWEST IDAHO


CITY           SKY/WX    TMP DP  RH WIND       PRES   REMARKS
BOISE          CLEAR     66  36  32 E7        30.15R
CALDWELL       CLEAR     54  39  58 CALM      30.16R
MOUNTAIN HOME  CLEAR     55  30  38 E9        30.17R
$$

IDZ016-017-311400-
SOUTHCENTRAL IDAHO


CITY           SKY/WX    TMP DP  RH WIND       PRES   REMARKS
BURLEY         PTCLDY    49  43  80 CALM      30.24R
JEROME         CLEAR     60  33  36 E10       30.24R
TWIN FALLS     PTCLDY    64  28  25 S10       30.22R
$$

IDZ019>023-311400-
SOUTHEAST IDAHO


CITY           SKY/WX    TMP DP  RH WIND       PRES   REMARKS
IDAHO FALLS    CLEAR     44  41  89 N5        30.30R
POCATELLO      CLEAR     46  38  73 CALM      30.29R
REXBURG        CLEAR     48  40  73 CALM      30.32R
$$

IDZ006-010-011-018-031-032-311400-
CENTRAL IDAHO MOUNTAINS


CITY           SKY/WX    TMP DP  RH WIND       PRES   REMARKS
MCCALL         CLEAR     48  37  65 NE5       30.30R
HAILEY         PTCLDY    54  34  47 W12       30.35S
STANLEY          N/A     36  29  75 CALM      30.47R
SALMON         CLEAR     48  43  81 CALM      30.31R
CHALLIS        CLEAR     53  39  59 CALM      30.36R
$$

IDZ002-004-006-007-026-311400-
NORTHERN IDAHO


CITY           SKY/WX    TMP DP  RH WIND       PRES   REMARKS
LEWISTON       MOCLDY    67  41  38 E3        30.08R
LOWELL           N/A     55  49  80 NW3       30.20R
COEUR D`ALENE  CLEAR     61  43  51 E7        30.13R
MULLAN PASS    PTCLDY    67  28  23 S3        30.36S
$$


USA.gov is the U.S. government's official web portal to all federal, state and local government web resources and services.